Find Starlink 32165

NORAD ID: 60599 Int'l Des: 2024-150 Owner: SPXS Country: US Constellation: starlink operational
LEOCIRCULAR

当前视图

正在加载3D地球...

About Starlink 32165

Starlink 32165 (NORAD 60599) is a starlink constellation satellite (v2 mini) launched Aug 20, 2024 by SPXS of US. It operates in LEO, CIRCULAR orbit with a mass of 730.00 kg.

关于 Starlink 32165

正在加载描述...

即将过境

Passes for default location (London). Set your location on the main map for personalized predictions.

高度历史

Loading altitude history...

两行轨道根数

1 60599U 24150S 26175.25774740 .00000786 00000-0 38626-4 0 9998
2 60599 53.1596 172.2974 0000157 325.2416 34.8574 15.30194923104359
Epoch: Jun 24, 2026 • Age: 22 hours

当前状态

高度 484.3 km
速度 7.62 km/s
星下点 -30.11°S, 169.72°E
发射日期 Aug 20, 2024
运行时间 1.8 years
类型 internet

技术详情

分类 Payload
质量 730.00 kg
干质量 700.00 kg
总质量 730.00 kg
长度 0.30 m
直径 4.10 m
跨度 29.00 m
形状 Box + pan
制造商 SPXS
平台类型 Starlink V2M
阶段状态 In Orbit
所有者/国家 SPXS/US

Most Searched